Theta_e
313 313 313 311 311 310 309 309 308 309 309 310 310 309 309 309 309 308 308 308 307 304 300 300 301 301 300 303 303 300 300 302 303 303 304 306 308 312 312 309 311 309 306 306 305 308 309
310 313 313 312 311 311 310 309 308 308 309 308 309 309 308 308 308 308 308 308 307 302 300 300 301 301 301 305 301 300 301 302 302 303 304 307 308 310 308 308 310 307 306 305 306 305 305
308 309 311 311 311 311 310 309 309 308 309 309 308 307 306 307 307 307 307 307 306 302 300 300 300 301 302 304 300 300 301 301 302 303 304 306 308 309 307 306 306 306 306 305 306 305 305
302 306 308 308 309 309 310 310 309 308 307 307 307 307 306 306 306 306 307 306 305 301 300 300 299 301 304 302 300 300 301 301 302 303 304 304 307 308 308 306 307 308 308 308 305 305 304
304 303 308 306 306 306 307 309 309 308 308 306 306 305 305 306 307 306 307 305 299 300 299 300 299 302 304 300 299 300 301 302 302 303 303 304 306 305 306 308 309 308 313 314 307 305 305
304 308 306 307 307 305 305 307 309 308 308 307 306 304 305 306 306 307 306 300 300 299 298 300 301 300 299 300 299 299 301 302 303 303 304 307 308 310 308 314 313 310 311 313 311 305 306
298 305 307 307 306 306 305 306 308 309 308 307 305 304 302 305 306 306 301 299 299 301 299 301 301 300 299 299 298 298 300 302 303 304 307 308 313 312 309 311 311 312 313 312 306 305 306
297 298 303 307 305 307 306 305 308 308 308 307 306 305 300 305 306 305 302 305 301 302 302 299 299 300 298 298 298 298 300 303 304 306 307 306 312 309 310 310 310 312 313 308 305 304 304
297 297 297 304 307 306 306 306 306 307 307 307 306 305 300 304 305 303 305 304 299 300 303 300 299 299 299 299 300 299 299 302 304 306 305 310 305 304 307 307 309 311 314 309 311 303 303
300 300 299 298 302 307 308 307 305 307 306 306 306 305 301 303 304 304 305 304 298 299 307 303 300 299 299 300 300 299 300 302 303 305 305 305 301 303 305 308 311 308 305 308 306 307 313
301 302 301 300 298 305 307 307 306 305 305 305 305 305 303 302 307 305 305 302 298 300 314 302 300 298 298 300 298 297 298 300 304 304 305 304 302 303 306 303 306 308 305 306 308 309 309
305 304 305 302 300 302 306 308 306 306 305 305 305 305 303 302 306 306 303 299 299 305 309 302 298 299 299 299 298 297 299 301 301 302 300 299 299 300 299 300 300 302 306 308 310 308 308
311 304 302 303 301 300 306 306 306 306 305 304 305 305 304 302 304 305 301 298 304 308 305 302 300 299 300 299 299 299 299 299 301 302 301 300 299 297 298 299 299 302 308 312 310 306 308
313 311 304 300 302 303 304 304 305 306 305 304 304 304 304 302 304 303 299 301 306 307 307 303 301 300 300 299 300 299 299 300 300 303 303 303 302 298 298 301 302 300 308 312 306 311 312
307 311 310 305 303 302 303 303 305 306 305 304 304 304 304 303 304 300 302 302 304 308 304 302 301 301 300 300 300 298 299 302 301 300 306 305 301 296 295 296 298 301 301 306 306 300 305
304 308 311 309 305 305 304 303 304 305 305 304 303 303 305 303 303 300 302 303 304 306 303 302 305 304 302 300 300 299 299 301 303 300 305 307 299 296 294 296 296 299 298 303 304 307 310
300 301 304 309 308 305 305 304 304 304 305 304 303 304 304 303 301 300 301 303 304 303 303 303 305 304 307 301 301 300 303 303 303 301 303 302 301 296 296 295 297 297 300 299 302 307 311
297 299 302 301 303 308 305 305 304 304 305 303 303 304 303 303 300 300 300 301 302 303 301 303 303 307 307 303 301 301 304 304 301 300 300 303 299 297 297 291 291 293 298 300 307 304 302
297 299 298 300 301 308 307 304 304 304 303 302 303 299 301 301 301 300 300 301 301 302 302 302 303 305 303 303 302 303 303 299 299 299 300 300 301 298 300 296 292 292 296 298 298 300 305
295 297 299 299 301 304 305 305 304 304 303 303 302 301 298 298 301 300 300 301 301 300 303 303 304 301 301 302 303 302 301 298 299 300 301 302 303 304 305 305 297 295 298 298 302 301 302
294 295 297 298 299 300 303 306 304 305 303 302 302 302 300 299 299 301 302 301 301 301 301 302 303 303 304 305 302 302 301 298 297 298 300 298 298 301 301 301 301 300 297 299 300 302 304
293 294 294 297 298 300 300 301 304 305 303 303 301 303 300 302 301 300 301 302 301 300 301 302 303 302 304 304 303 302 302 301 301 297 295 291 299 296 296 299 299 299 300 298 299 300 301
292 293 294 295 297 299 300 303 304 305 303 302 300 300 300 301 301 301 301 301 301 301 301 302 302 302 303 303 304 303 302 303 299 297 296 293 296 297 299 297 298 299 299 298 294 294 299
292 292 293 295 296 298 299 301 300 303 302 302 301 299 300 302 301 301 301 301 301 302 302 301 301 301 302 302 303 303 303 302 300 298 299 295 297 301 298 298 302 298 297 299 301 299 298
292 292 293 295 295 297 298 300 299 302 303 303 302 300 299 299 301 301 301 301 301 300 301 301 301 301 301 302 301 302 301 301 299 300 300 297 298 301 303 302 300 302 298 299 300 301 300
292 292 292 294 295 296 297 300 300 301 304 302 302 302 300 299 299 300 300 300 301 300 300 301 300 301 301 300 303 302 302 301 301 301 301 300 302 303 302 304 304 302 301 304 297 303 300
292 292 292 293 295 296 296 298 298 300 303 302 302 301 301 300 300 300 300 300 300 301 300 300 300 301 300 300 301 301 301 301 301 300 299 302 301 303 304 306 302 297 297 303 301 300 296
293 293 294 294 294 294 295 297 298 298 300 299 299 300 301 300 302 301 301 300 300 300 300 300 299 300 299 300 301 301 301 300 300 299 299 302 302 301 302 303 304 295 299 301 296 294 293
294 293 294 294 294 295 296 298 297 297 298 299 300 299 299 300 296 300 300 299 300 301 300 300 300 299 300 300 300 300 303 300 300 301 300 302 300 301 301 301 289 286 286 286 291 292 288
Wind_Speed
13 14 13 12 11 10 8 9 8 10 13 13 12 12 11 10 9 7 6 6 6 8 9 8 6 3 6 1 3 3 3 8 10 11 12 9 7 5 5 7 6 5 6 6 3 5 8
15 15 14 13 13 13 11 9 7 10 10 10 12 16 15 13 10 8 7 8 7 8 8 8 6 5 6 4 4 3 4 9 9 11 11 11 2 4 11 5 3 8 13 11 7 6 4
20 20 20 18 16 15 14 12 8 11 11 12 12 12 12 14 14 10 6 7 7 7 9 8 5 5 5 7 4 4 5 7 9 9 11 11 14 3 9 7 12 18 6 7 7 7 3
20 20 22 22 20 19 18 16 12 11 11 17 17 16 12 14 10 8 8 10 8 8 9 8 5 5 4 6 5 6 6 6 8 8 8 11 12 12 6 17 7 4 4 3 4 6 1
16 20 20 21 21 21 20 19 16 14 13 13 11 17 14 14 12 9 10 7 6 7 7 7 4 1 4 5 8 8 8 8 8 9 11 12 9 6 8 5 4 3 3 4 4 9 4
15 17 19 21 20 20 20 19 18 16 14 12 13 9 16 13 12 10 10 8 8 7 5 6 4 4 6 5 8 9 9 12 7 12 9 5 3 3 1 3 6 6 4 5 6 6 3
18 19 20 19 20 18 18 22 20 17 15 14 10 8 10 13 13 13 12 13 7 2 9 4 2 1 2 5 9 8 10 10 13 4 4 3 3 6 10 7 2 0 5 6 4 3 3
21 20 21 21 20 23 20 17 23 21 17 14 11 9 8 14 14 12 16 5 1 4 3 11 7 7 5 9 3 7 13 6 7 5 5 3 4 2 1 4 1 2 5 4 4 5 3
25 24 23 24 23 20 20 20 23 23 20 16 13 10 8 16 14 14 14 10 5 8 3 5 8 5 5 10 2 9 12 4 3 5 7 5 2 3 3 3 5 1 2 4 3 4 3
28 27 26 25 26 25 23 22 19 25 23 20 16 13 11 17 14 12 16 12 8 7 2 7 7 6 8 6 3 9 14 5 2 7 7 2 1 3 3 4 2 4 1 5 8 4 3
32 30 29 27 26 27 25 24 22 23 24 23 21 15 13 22 2 17 7 14 11 3 2 7 6 6 8 5 8 3 9 3 4 3 4 5 3 4 3 3 3 4 2 4 1 1 4
36 34 32 31 29 27 28 27 25 24 23 22 23 18 15 22 10 12 11 14 12 2 8 6 5 6 6 4 3 5 3 3 6 4 6 4 3 4 3 4 1 6 6 6 4 3 2
38 38 36 35 32 30 30 30 27 25 24 21 24 21 20 27 6 14 15 15 3 5 4 7 5 7 6 5 4 5 5 5 6 6 5 3 3 1 3 6 6 6 4 2 3 1 6
44 42 40 39 35 34 33 32 29 28 25 22 24 21 22 26 12 14 21 3 7 9 5 6 6 8 6 6 3 6 7 4 6 1 4 7 3 6 4 1 5 4 2 5 8 5 4
26 50 43 41 39 37 37 34 31 30 27 23 24 22 24 28 22 20 12 6 6 4 9 10 10 5 6 5 4 5 7 5 9 9 7 5 2 3 5 3 2 5 3 2 4 3 3
16 22 46 44 42 41 40 35 34 34 31 28 29 27 27 29 22 23 5 10 5 4 6 4 7 9 10 11 8 9 10 6 7 10 3 5 5 2 1 1 2 3 3 3 2 3 4
38 27 19 32 41 44 42 38 36 38 34 31 30 16 20 28 19 13 9 6 4 6 6 7 5 7 6 9 8 7 7 2 6 7 7 3 5 1 4 6 7 2 1 0 1 3 5
22 30 42 28 25 48 45 41 39 39 37 33 27 5 29 30 11 10 12 6 1 6 8 5 3 4 7 9 9 8 9 2 12 13 9 4 5 4 4 1 2 1 2 5 4 5 3
19 22 23 31 29 31 45 45 43 42 44 43 20 7 34 34 10 11 8 10 3 5 5 6 6 2 2 7 5 8 7 3 12 7 8 8 3 4 2 2 3 4 6 2 2 1 6
21 16 18 22 30 38 32 50 47 47 46 40 15 5 9 19 20 17 16 9 13 11 3 6 3 6 3 2 1 6 3 2 8 3 3 5 2 5 7 5 5 6 8 12 6 3 4
19 20 17 15 22 30 21 45 49 52 51 43 20 6 14 8 16 12 13 11 15 9 5 11 3 5 6 4 4 4 4 2 4 2 3 4 5 3 1 4 4 5 6 16 16 16 9
19 17 18 15 17 16 34 21 53 57 54 45 15 6 16 3 29 18 14 18 19 18 10 6 6 11 6 6 7 7 6 4 5 3 3 3 1 3 2 2 2 3 7 13 17 12 17
18 17 16 16 16 15 23 25 39 60 61 30 30 20 19 10 15 16 18 12 16 12 12 7 11 5 6 7 6 8 6 8 11 8 5 6 5 3 4 2 3 8 12 11 6 7 11
18 17 16 14 16 15 18 30 23 29 69 42 30 25 9 4 12 18 12 19 12 16 6 11 15 8 7 12 13 10 8 6 12 6 10 6 4 2 3 1 5 8 1 11 20 14 19
18 16 15 13 14 12 14 17 18 20 73 50 30 33 19 10 12 12 20 13 21 21 12 7 9 10 17 16 4 4 2 5 5 9 11 6 5 2 4 6 10 17 3 6 8 12 14
17 16 15 12 14 11 12 11 23 32 70 62 31 34 27 12 17 27 12 21 8 12 8 6 6 13 17 3 3 5 7 4 5 4 12 14 12 8 4 5 12 13 12 22 5 19 10
14 13 13 11 10 7 6 9 10 15 34 64 36 33 24 15 27 31 15 19 20 10 5 8 14 10 16 2 2 5 7 6 6 8 6 5 5 16 15 11 8 6 9 18 9 5 6
11 11 8 7 8 11 6 9 8 6 5 17 19 29 27 15 7 27 30 21 21 22 9 12 10 6 3 6 6 5 6 9 8 9 8 10 10 7 9 10 17 6 6 13 1 8 10
13 7 7 5 5 7 7 10 9 8 10 16 20 19 28 14 5 15 17 21 29 30 31 21 12 9 13 6 6 4 6 4 15 12 8 8 9 6 10 7 6 10 10 7 6 10 7
Wind_Direction
250 255 256 250 258 265 273 311 298 232 219 231 238 241 251 238 235 229 249 262 252 207 196 188 181 162 159 231 240 282 187 174 172 164 153 141 192 150 131 114 114 96 115 79 104 106 82
245 245 244 252 262 262 261 281 308 218 233 241 241 242 247 246 234 224 235 265 267 202 193 192 182 171 174 245 261 235 186 181 181 171 163 148 71 154 103 83 42 114 117 121 123 103 104
249 248 249 252 255 261 258 263 274 263 238 232 237 251 246 230 235 231 214 256 257 206 196 188 182 178 193 228 231 212 179 181 183 185 174 163 149 180 122 106 120 137 105 136 146 165 116
251 249 250 250 251 247 257 262 259 271 267 250 243 248 216 223 225 220 207 236 247 194 188 184 176 170 261 238 220 192 169 150 174 182 186 173 153 127 99 122 120 171 152 131 149 179 181
256 248 248 250 248 248 245 249 251 257 271 276 286 231 225 202 209 207 218 229 183 178 180 174 175 148 256 215 199 184 177 152 135 147 148 142 135 101 130 157 87 198 198 172 166 210 123
251 256 247 246 249 245 241 237 243 254 264 270 290 277 217 202 190 199 215 154 134 147 159 169 210 244 236 192 193 178 167 155 126 132 123 115 110 82 108 103 189 178 207 157 162 203 213
254 244 251 245 243 244 237 225 229 241 247 258 270 283 231 198 192 198 161 126 124 138 191 223 268 247 183 188 165 177 164 147 136 152 157 172 103 191 203 205 35 291 180 156 83 108 177
252 250 238 247 239 236 243 241 219 231 240 246 258 269 213 193 194 206 156 179 229 181 203 230 233 219 191 162 144 176 166 161 164 161 110 94 213 76 281 140 240 282 180 96 65 144 173
253 248 244 235 236 233 236 236 220 223 228 234 238 238 218 181 191 197 191 184 210 172 238 206 199 199 190 173 165 183 173 176 198 155 188 162 81 40 99 133 145 29 175 140 117 155 255
252 250 246 240 234 228 231 235 229 220 226 229 230 232 202 181 198 200 207 208 195 177 270 162 202 202 184 159 201 185 173 149 177 187 171 44 95 160 146 143 87 148 3 106 126 123 218
252 247 245 241 237 227 223 230 231 227 229 223 225 223 208 181 135 180 215 199 174 155 260 123 141 163 168 177 142 186 167 118 151 121 115 194 135 156 147 101 13 172 45 94 85 185 49
252 245 240 241 238 229 218 226 228 228 224 222 218 213 200 180 161 196 199 170 153 206 239 150 129 163 152 164 130 122 139 116 116 93 43 92 57 41 83 63 65 136 66 51 22 83 314
255 249 243 237 234 227 218 220 220 220 220 220 207 203 198 184 188 199 182 153 180 221 149 168 173 163 189 152 150 186 163 177 158 130 164 123 86 81 167 84 357 56 106 44 355 1 226
250 248 243 239 232 226 222 220 215 214 215 207 201 201 195 188 207 187 170 196 230 200 157 141 129 153 189 142 167 190 156 203 262 190 114 152 232 162 174 149 174 188 174 161 191 192 232
275 241 239 236 231 227 221 219 203 208 209 201 196 198 197 191 199 179 187 207 205 243 128 138 138 153 202 157 144 147 204 205 193 197 155 148 124 73 38 9 29 197 202 162 92 290 55
325 251 240 237 230 228 222 216 204 201 205 197 190 190 198 197 198 181 204 228 240 81 120 156 173 186 179 179 169 183 179 202 193 181 147 172 100 7 89 336 30 134 298 69 336 163 249
279 283 273 237 231 228 222 214 208 195 201 192 186 178 191 193 188 191 213 226 249 153 157 169 206 176 175 170 188 194 196 183 174 158 138 136 109 105 131 205 183 147 216 258 145 175 187
298 285 266 279 251 220 220 217 206 197 194 186 177 191 173 180 174 204 220 192 236 175 183 236 299 171 170 158 184 202 209 116 139 138 164 181 109 138 198 296 84 332 256 177 144 244 226
291 295 276 259 259 225 217 214 207 204 196 178 180 144 171 174 192 212 226 226 204 182 189 197 213 173 12 159 155 183 163 34 147 166 164 182 194 104 4 359 8 222 206 181 132 101 213
294 286 297 259 236 222 207 209 205 203 197 176 165 147 174 203 218 194 188 208 208 212 239 203 161 104 113 167 127 171 118 26 172 175 106 129 146 172 189 186 130 186 195 190 170 166 166
289 288 283 288 272 248 225 202 207 202 196 184 180 190 186 188 213 220 198 185 199 200 204 188 198 207 174 138 141 149 109 105 16 110 56 111 192 156 108 137 147 183 181 188 206 212 191
293 285 281 278 266 261 235 240 202 202 196 188 186 181 167 235 196 210 208 204 199 196 162 212 186 193 181 153 186 181 134 194 182 128 132 6 181 95 290 122 181 252 207 195 218 234 259
299 280 280 274 269 248 231 194 194 204 192 192 195 193 162 180 187 192 212 205 209 182 199 194 180 127 176 198 125 116 121 150 157 144 150 139 132 107 257 156 158 288 209 179 184 208 201
299 282 279 276 261 251 238 224 238 221 198 195 192 182 163 182 179 205 197 213 212 207 179 185 176 155 196 160 134 121 124 145 165 173 152 136 134 147 185 71 228 242 255 179 205 212 216
301 290 275 282 251 252 240 239 219 229 197 194 192 190 189 210 200 199 214 206 215 234 215 170 184 198 165 140 108 135 253 356 222 188 199 152 148 221 190 195 282 285 200 151 166 250 214
306 291 284 284 243 232 231 223 227 217 197 197 192 196 197 195 221 212 206 201 182 198 227 151 157 175 169 123 143 154 201 164 213 225 199 187 201 201 192 219 240 285 218 209 112 261 205
316 306 293 273 235 226 251 236 243 226 186 198 201 203 195 193 228 204 203 207 194 169 169 196 188 167 187 148 179 195 224 185 230 177 161 156 193 213 222 235 264 227 160 139 165 251 66
329 325 315 273 240 217 227 223 196 207 233 205 218 210 207 204 183 206 204 206 203 204 191 172 148 182 149 203 197 198 232 212 219 214 173 175 174 195 218 233 249 35 133 190 182 100 100
11 342 343 301 220 201 190 186 178 179 200 216 211 195 199 198 155 196 199 201 206 209 201 183 186 156 182 179 186 186 214 194 216 235 191 209 195 180 189 204 77 39 71 70 82 125 80